User: anonymous   Login
Location: Chiroubles
(46.1812°N, 4.6660°E)
Time: 12:18:54
(UTC+00:00)
Language:

Resurs 01 Rocket - Orbit

View from above orbital plane
View from above orbital plane
View from above satellite
View from above satellite

Ground track
Ground track

The orbit data is extracted from the following two-line orbital elements,

1 23343U 94074B   20296.40379403 +.00000021 +00000-0 +10281-4 0  9997
2 23343 097.9838 348.1795 0008276 100.3833 270.7393 14.76841121397150
Epoch (UTC): 22 October 2020 09:41:27
Eccentricity: 0.0008276
inclination: 97.9838°
perigee height: 633 km
apogee height: 645 km
right ascension of ascending node: 348.1795°
argument of perigee: 100.3833°
revolutions per day: 14.76841121
mean anomaly at epoch: 270.7393°
orbit number at epoch: 39715

The dashed part of the orbit path shows where the satellite is in the earth's shadow,  

DLR